Weather History for KTCM - February, 2013

Change the Weather History Date:

Sunday, February 3, 2013

  Actual Average Record
Temperature  
Mean Temperature 39 °F -  
Max Temperature 46 °F 46 °F 59 °F (2000)
Min Temperature 32 °F 31 °F 9 °F (1989)
Degree Days  
Heating Degree Days 26    
Moisture  
Dew Point 38 °F    
Average Humidity 98    
Maximum Humidity 100    
Minimum Humidity 87    
Precipitation  
Precipitation 0.02 in - - ()
Sea Level Pressure  
Sea Level Pressure 30.28 in    
Wind  
Wind Speed 3 mph (South)    
Max Wind Speed 9 mph    
Max Gust Speed -    
Visibility 7 miles    
Events Fog , Rain    
Averages and records for this station are not official NWS values.
T = Trace of Precipitation, MM = Missing Value Source: NWS Daily Summary

Daily Weather History Graph

Daily Weather History Graph

Search for Another Location

Airport or City:

Trip Planner

Search our weather history database for the weather conditions in past years. The results will help you decide how hot, cold, wet, or windy it might be!

Date:

Astronomy

Feb. 03, 2013 Rise Set
Actual Time 7:32 AM PST 5:16 PM PST
Civil Twilight 6:59 AM PST 5:48 PM PST
Nautical Twilight 6:23 AM PST 6:24 PM PST
Astronomical Twilight 5:47 AM PST 7:00 PM PST
Moon 1:07 AM PST (2/3) 10:54 AM PST (2/3)
Length of Visible Light 10h 48m
Length of Day
9h 44m
Waning Gibbous, 47% of the Moon is Illuminated
Feb 3
Waning Gibbous
Feb 9
New
Feb 17
First Quarter
Feb 25
Full
Mar 4
Last Quarter

Hourly Weather History & Observations

Time (PST) Temp. Windchill Dew Point Humidity Pressure Visibility Wind Dir Wind Speed Gust Speed Precip Events Conditions
12:13 AM 33.8 °F - 33.8 °F 100% 30.29 in 0.2 mi North 2.3 mph - N/A Fog Fog
12:18 AM 33.8 °F - 33.8 °F 100% 30.30 in 0.2 mi North 2.3 mph - N/A Fog Fog
12:33 AM 35.6 °F - 33.8 °F 93% 30.29 in 0.2 mi NNE 1.2 mph - N/A Fog Fog
12:48 AM 35.6 °F - 35.6 °F 100% 30.29 in 0.5 mi Calm Calm - N/A Fog Fog
12:58 AM 35.4 °F - 35.4 °F 100% 30.31 in 0.5 mi Calm Calm - N/A Fog Fog
1:03 AM 35.6 °F - 35.6 °F 100% 30.29 in 0.2 mi Calm Calm - N/A Fog Fog
1:08 AM 35.6 °F - 35.6 °F 100% 30.29 in 0.2 mi Calm Calm - N/A Fog Fog
1:21 AM 35.6 °F - 35.6 °F 100% 30.29 in 0.2 mi ESE 2.3 mph - N/A Fog Fog
1:26 AM 35.6 °F - 35.6 °F 100% 30.29 in 0.2 mi SSE 2.3 mph - N/A Fog Fog
1:36 AM 33.8 °F 30.8 °F 33.8 °F 100% 30.29 in 0.5 mi SSE 3.5 mph - N/A Fog Fog
1:43 AM 33.8 °F - 33.8 °F 100% 30.29 in 0.5 mi SSE 2.3 mph - N/A Fog Fog
1:53 AM 32.0 °F - 32.0 °F 100% 30.29 in 0.8 mi SSE 2.3 mph - N/A   Mist
1:58 AM 33.3 °F - 33.3 °F 100% 30.31 in 0.8 mi SE 1.2 mph - 0.00 in   Mist
2:23 AM 32.0 °F 27.5 °F 32.0 °F 100% 30.28 in 0.8 mi SSE 4.6 mph - N/A   Mist
2:28 AM 32.0 °F 28.7 °F 32.0 °F 100% 30.27 in 1.0 mi SSE 3.5 mph - N/A   Mist
2:33 AM 32.0 °F 28.7 °F 32.0 °F 100% 30.27 in 1.2 mi Variable 3.5 mph - N/A   Overcast
2:38 AM 32.0 °F - 32.0 °F 100% 30.28 in 2.5 mi ENE 1.2 mph - N/A   Mostly Cloudy
2:43 AM 32.0 °F 28.7 °F 32.0 °F 100% 30.28 in 5.0 mi SSW 3.5 mph - N/A   Mostly Cloudy
2:48 AM 32.0 °F - 32.0 °F 100% 30.28 in 8.0 mi SSW 2.3 mph - N/A   Mostly Cloudy
2:58 AM 32.0 °F - 31.8 °F 99% 30.30 in 7.0 mi Calm Calm - N/A   Scattered Clouds
3:13 AM 32.0 °F - 32.0 °F 100% 30.28 in 7.0 mi Calm Calm - N/A   Mostly Cloudy
3:58 AM 32.5 °F - 32.5 °F 100% 30.29 in 10.0 mi South 1.2 mph - N/A   Overcast
4:33 AM 32.0 °F 27.5 °F 32.0 °F 100% 30.27 in 8.0 mi SSE 4.6 mph - N/A   Scattered Clouds
4:58 AM 32.5 °F 29.3 °F 32.5 °F 100% 30.30 in 10.0 mi South 3.5 mph - N/A   Mostly Cloudy
5:03 AM 32.0 °F 28.7 °F 32.0 °F 100% 30.28 in 10.0 mi SSE 3.5 mph - N/A   Overcast
5:58 AM 35.6 °F 31.7 °F 35.6 °F 100% 30.30 in 10.0 mi WSW 4.6 mph - N/A   Overcast
6:58 AM 36.9 °F - 36.9 °F 100% 30.31 in 10.0 mi SE 1.2 mph - N/A   Overcast
7:58 AM 37.6 °F - 37.6 °F 100% 30.31 in 9.0 mi East 1.2 mph - N/A   Overcast
8:18 AM 37.4 °F - 37.4 °F 100% 30.29 in 8.0 mi Calm Calm - N/A   Overcast
8:58 AM 38.3 °F - 38.3 °F 100% 30.32 in 10.0 mi Calm Calm - N/A   Overcast
9:58 AM 39.2 °F - 39.2 °F 100% 30.33 in 10.0 mi South 2.3 mph - N/A   Overcast
10:28 AM 39.2 °F 35.9 °F 39.2 °F 100% 30.30 in 10.0 mi SSE 4.6 mph - N/A   Overcast
10:58 AM 40.8 °F 38.8 °F 40.8 °F 100% 30.32 in 10.0 mi South 3.5 mph - N/A   Overcast
11:58 AM 43.0 °F 40.3 °F 43.0 °F 100% 30.31 in 10.0 mi South 4.6 mph - N/A   Overcast
12:58 PM 44.6 °F 41.4 °F 44.6 °F 100% 30.30 in 10.0 mi SSW 5.8 mph - N/A   Overcast
1:58 PM 45.9 °F 41.2 °F 44.6 °F 95% 30.28 in 10.0 mi SSW 9.2 mph - N/A   Overcast
2:58 PM 46.6 °F - 43.0 °F 87% 30.27 in 10.0 mi SSW 5.8 mph - N/A   Overcast
3:58 PM 46.6 °F - 43.0 °F 87% 30.27 in 10.0 mi SSW 4.6 mph - N/A   Overcast
4:33 PM 46.4 °F 43.5 °F 42.8 °F 87% 30.26 in 10.0 mi SW 5.8 mph - N/A   Overcast
4:38 PM 46.4 °F 43.5 °F 42.8 °F 87% 30.25 in 10.0 mi SW 5.8 mph - N/A   Overcast
4:43 PM 46.4 °F 43.5 °F 42.8 °F 87% 30.25 in 10.0 mi SW 5.8 mph - N/A   Overcast
4:48 PM 46.4 °F 43.5 °F 42.8 °F 87% 30.25 in 10.0 mi SW 5.8 mph - N/A   Overcast
4:58 PM 45.9 °F 43.6 °F 42.8 °F 89% 30.27 in 10.0 mi SW 4.6 mph - N/A   Overcast
5:40 PM 44.6 °F 42.2 °F 44.6 °F 100% 30.26 in 10.0 mi SSW 4.6 mph - N/A Rain Light Rain
5:55 PM 44.6 °F 41.4 °F 44.6 °F 100% 30.25 in 10.0 mi SSW 5.8 mph - N/A Rain Light Rain
5:58 PM 44.6 °F 42.2 °F 44.1 °F 98% 30.27 in 10.0 mi SSW 4.6 mph - 0.00 in Rain Light Rain
6:13 PM 44.6 °F 42.2 °F 44.6 °F 100% 30.25 in 10.0 mi SSW 4.6 mph - N/A Rain Light Rain
6:27 PM 44.6 °F 43.1 °F 42.8 °F 93% 30.25 in 10.0 mi SSE 3.5 mph - N/A   Overcast
6:35 PM 44.6 °F - 42.8 °F 93% 30.25 in 10.0 mi South 2.3 mph - N/A Rain Light Rain
6:45 PM 42.8 °F - 42.8 °F 100% 30.25 in 10.0 mi SSW 2.3 mph - N/A Rain Light Rain
6:58 PM 43.3 °F 41.7 °F 43.2 °F 99% 30.27 in 10.0 mi SSW 3.5 mph - 0.01 in Rain Light Rain
7:33 PM 42.8 °F 40.1 °F 42.8 °F 100% 30.24 in 10.0 mi SSW 4.6 mph - N/A Rain Light Rain
7:48 PM 42.8 °F 40.1 °F 42.8 °F 100% 30.24 in 10.0 mi SW 4.6 mph - N/A Rain Light Rain
7:58 PM 43.7 °F 41.1 °F 43.3 °F 99% 30.25 in 10.0 mi SW 4.6 mph - 0.01 in Rain Light Rain
8:02 PM 44.6 °F 42.2 °F 42.8 °F 93% 30.23 in 10.0 mi SSW 4.6 mph - N/A   Overcast
8:58 PM 43.9 °F 41.3 °F 43.7 °F 99% 30.25 in 10.0 mi SSW 4.6 mph - 0.00 in   Overcast
9:38 PM 44.6 °F 40.2 °F 42.8 °F 93% 30.23 in 10.0 mi SSW 8.1 mph - N/A   Overcast
9:58 PM 43.7 °F 39.1 °F 43.5 °F 99% 30.25 in 10.0 mi SSW 8.1 mph - N/A   Overcast
10:58 PM 43.9 °F 40.5 °F 43.7 °F 99% 30.25 in 10.0 mi SSW 5.8 mph - N/A   Overcast
11:58 PM 43.3 °F 39.9 °F 43.2 °F 99% 30.24 in 10.0 mi South 5.8 mph - N/A   Overcast